| time (UTC) | temp F | wind direction | speed knots | gust knots | rain 1hr in | rain 24hr in | rain mn in | humidity % | barometer mb |
| 20260509032048 | 59 | 0 | 0.0 | 0.0 | 0.00 | 0.00 | 0.00 | 64 | 1015.1 |
| 20260509031550 | 59 | 0 | 0.0 | 1.7 | 0.00 | 0.00 | 0.00 | 66 | 1015.2 |
| 20260509031045 | 59 | 0 | 0.0 | 1.7 | 0.00 | 0.00 | 0.00 | 65 | 1015.1 |
| 20260509030545 | 59 | 0 | 0.0 | 1.7 | 0.00 | 0.00 | 0.00 | 65 | 1015.2 |
| 20260509030054 | 59 | 0 | 0.0 | 2.6 | 0.00 | 0.00 | 0.00 | 59 | 1015.3 |
| 20260509025545 | 59 | 241 | 0.0 | 2.6 | 0.00 | 0.00 | 0.00 | 64 | 1015.4 |
| 20260509025045 | 59 | 241 | 0.0 | 2.6 | 0.00 | 0.00 | 0.00 | 62 | 1015.5 |
| 20260509024550 | 59 | 0 | 0.0 | 1.7 | 0.00 | 0.00 | 0.00 | 68 | 1015.4 |
| 20260509024048 | 59 | 0 | 0.0 | 1.7 | 0.00 | 0.00 | 0.00 | 63 | 1015.5 |
| 20260509023546 | 59 | 0 | 0.0 | 1.7 | 0.00 | 0.00 | 0.00 | 66 | 1015.4 |
| 20260509023102 | 59 | 0 | 0.0 | 1.7 | 0.00 | 0.00 | 0.00 | 68 | 1015.5 |
| 20260509022546 | 59 | 0 | 0.0 | 0.9 | 0.00 | 0.00 | 0.00 | 71 | 1015.5 |
| 20260509022045 | 59 | 0 | 0.0 | 0.0 | 0.00 | 0.00 | 0.00 | 69 | 1015.6 |
| 20260509021554 | 59 | 0 | 0.0 | 0.0 | 0.00 | 0.00 | 0.00 | 68 | 1015.7 |
| 20260509021045 | 58 | 0 | 0.0 | 0.0 | 0.00 | 0.00 | 0.00 | 68 | 1015.6 |
| 20260509020545 | 58 | 0 | 0.0 | 0.9 | 0.00 | 0.00 | 0.00 | 71 | 1015.6 |
| 20260509020049 | 57 | 0 | 0.0 | 0.9 | 0.00 | 0.00 | 0.00 | 73 | 1015.6 |
| 20260509015545 | 57 | 0 | 0.0 | 0.0 | 0.00 | 0.00 | 0.00 | 73 | 1015.7 |
| 20260509015050 | 57 | 0 | 0.0 | 0.0 | 0.00 | 0.00 | 0.00 | 74 | 1015.7 |
| 20260509014550 | 57 | 0 | 0.0 | 0.0 | 0.00 | 0.00 | 0.00 | 70 | 1015.6 |
| 20260509014044 | 57 | 0 | 0.0 | 0.0 | 0.00 | 0.00 | 0.00 | 69 | 1015.6 |
| 20260509013548 | 57 | 0 | 0.0 | 0.0 | 0.00 | 0.00 | 0.00 | 71 | 1015.6 |
| 20260509013058 | 57 | 0 | 0.0 | 0.0 | 0.00 | 0.00 | 0.00 | 70 | 1015.6 |
| 20260509012545 | 58 | 0 | 0.0 | 0.0 | 0.00 | 0.00 | 0.00 | 71 | 1015.5 |
| 20260509012045 | 58 | 0 | 0.0 | 0.0 | 0.00 | 0.00 | 0.00 | 69 | 1015.4 |
| 20260509011554 | 58 | 0 | 0.0 | 0.0 | 0.00 | 0.00 | 0.00 | 67 | 1015.3 |
| 20260509011045 | 58 | 0 | 0.0 | 0.0 | 0.00 | 0.00 | 0.00 | 66 | 1015.3 |
| 20260509010548 | 58 | 0 | 0.0 | 0.0 | 0.00 | 0.00 | 0.00 | 64 | 1015.3 |
| 20260509010052 | 58 | 0 | 0.0 | 0.0 | 0.00 | 0.00 | 0.00 | 66 | 1015.3 |
| 20260509005550 | 58 | 0 | 0.0 | 0.0 | 0.00 | 0.00 | 0.00 | 66 | 1015.3 |
| 20260509005047 | 58 | 0 | 0.0 | 0.0 | 0.00 | 0.00 | 0.00 | 66 | 1015.4 |
| 20260509004553 | 58 | 0 | 0.0 | 0.0 | 0.00 | 0.00 | 0.00 | 64 | 1015.3 |
| 20260509004048 | 58 | 0 | 0.0 | 0.0 | 0.00 | 0.00 | 0.00 | 64 | 1015.3 |
| 20260509003546 | 59 | 0 | 0.0 | 0.0 | 0.00 | 0.00 | 0.00 | 63 | 1015.1 |
| 20260509003100 | 59 | 0 | 0.0 | 0.0 | 0.00 | 0.00 | 0.00 | 63 | 1015.2 |
| 20260509002545 | 59 | 0 | 0.0 | 0.0 | 0.00 | 0.00 | 0.00 | 63 | 1015.0 |
| 20260509002045 | 59 | 0 | 0.0 | 0.0 | 0.00 | 0.00 | 0.00 | 62 | 1015.0 |
| 20260509001549 | 59 | 0 | 0.0 | 0.0 | 0.00 | 0.00 | 0.00 | 63 | 1014.9 |
| 20260509001045 | 59 | 0 | 0.0 | 0.0 | 0.00 | 0.00 | 0.00 | 65 | 1014.9 |
| 20260509000545 | 60 | 0 | 0.0 | 0.0 | 0.00 | 0.00 | 0.00 | 61 | 1014.8 |
| 20260509000059 | 60 | 0 | 0.0 | 0.0 | 0.00 | 0.00 | 0.00 | 60 | 1014.7 |
| 20260508235545 | 60 | 0 | 0.0 | 0.0 | 0.00 | 0.00 | 0.00 | 60 | 1014.7 |
| 20260508235048 | 60 | 0 | 0.0 | 0.0 | 0.00 | 0.00 | 0.00 | 64 | 1014.7 |
| 20260508234558 | 60 | 0 | 0.0 | 0.0 | 0.00 | 0.00 | 0.00 | 63 | 1014.7 |
| 20260508234045 | 60 | 0 | 0.0 | 0.0 | 0.00 | 0.00 | 0.00 | 61 | 1014.8 |
| 20260508233545 | 61 | 0 | 0.0 | 0.0 | 0.00 | 0.00 | 0.00 | 67 | 1014.7 |
| 20260508233056 | 61 | 0 | 0.0 | 0.0 | 0.00 | 0.00 | 0.00 | 67 | 1014.9 |
| 20260508232544 | 61 | 0 | 0.0 | 0.0 | 0.00 | 0.00 | 0.00 | 64 | 1015.0 |
| 20260508232045 | 61 | 0 | 0.0 | 0.0 | 0.00 | 0.00 | 0.00 | 68 | 1015.1 |
| 20260508231554 | 62 | 0 | 0.0 | 0.0 | 0.00 | 0.00 | 0.00 | 68 | 1015.0 |
| 20260508231048 | 62 | 0 | 0.0 | 0.0 | 0.00 | 0.00 | 0.00 | 62 | 1015.0 |
| 20260508230548 | 62 | 0 | 0.0 | 0.0 | 0.00 | 0.00 | 0.00 | 62 | 1015.1 |
| 20260508230059 | 63 | 0 | 0.0 | 0.0 | 0.00 | 0.00 | 0.00 | 54 | 1015.1 |
| 20260508225545 | 63 | 0 | 0.0 | 0.0 | 0.00 | 0.01 | 0.00 | 55 | 1014.9 |
| 20260508225046 | 63 | 0 | 0.0 | 0.0 | 0.00 | 0.01 | 0.00 | 58 | 1014.9 |
| 20260508224551 | 64 | 0 | 0.0 | 0.0 | 0.00 | 0.01 | 0.00 | 57 | 1014.9 |
| 20260508224048 | 64 | 0 | 0.0 | 0.0 | 0.00 | 0.01 | 0.00 | 62 | 1015.0 |
| 20260508223545 | 64 | 0 | 0.0 | 2.6 | 0.00 | 0.01 | 0.00 | 60 | 1015.1 |
| 20260508223055 | 64 | 0 | 0.0 | 2.6 | 0.00 | 0.01 | 0.00 | 60 | 1015.0 |
| 20260508222549 | 64 | 0 | 0.0 | 0.0 | 0.00 | 0.01 | 0.00 | 60 | 1015.1 |
| 20260508222048 | 64 | 0 | 0.0 | 0.0 | 0.00 | 0.01 | 0.00 | 61 | 1014.9 |
| 20260508221554 | 65 | 0 | 0.0 | 0.0 | 0.00 | 0.01 | 0.00 | 60 | 1014.9 |
| 20260508221045 | 65 | 0 | 0.0 | 0.0 | 0.00 | 0.01 | 0.00 | 58 | 1014.8 |
| 20260508220544 | 65 | 0 | 0.0 | 0.0 | 0.00 | 0.01 | 0.00 | 57 | 1014.7 |
| 20260508220051 | 65 | 0 | 0.0 | 0.0 | 0.00 | 0.01 | 0.00 | 58 | 1014.8 |
| 20260508215544 | 65 | 0 | 0.0 | 0.0 | 0.00 | 0.06 | 0.00 | 58 | 1014.6 |
| 20260508215049 | 65 | 0 | 0.0 | 0.0 | 0.00 | 0.06 | 0.00 | 58 | 1014.7 |
| 20260508214601 | 65 | 0 | 0.0 | 0.0 | 0.00 | 0.06 | 0.00 | 59 | 1014.7 |
| 20260508214046 | 66 | 0 | 0.0 | 0.0 | 0.00 | 0.06 | 0.00 | 60 | 1014.7 |
| 20260508213545 | 66 | 0 | 0.0 | 0.0 | 0.00 | 0.06 | 0.00 | 55 | 1014.9 |
| 20260508213051 | 66 | 0 | 0.0 | 0.0 | 0.00 | 0.06 | 0.00 | 54 | 1014.8 |
| 20260508212544 | 66 | 0 | 0.0 | 0.0 | 0.00 | 0.06 | 0.00 | 56 | 1014.7 |
| 20260508212045 | 66 | 0 | 0.0 | 0.0 | 0.00 | 0.06 | 0.00 | 53 | 1014.7 |
| 20260508211551 | 67 | 0 | 0.0 | 0.0 | 0.00 | 0.06 | 0.00 | 51 | 1014.6 |
| 20260508211047 | 67 | 0 | 0.0 | 0.0 | 0.00 | 0.06 | 0.00 | 53 | 1014.7 |
| 20260508210548 | 67 | 0 | 0.0 | 0.0 | 0.00 | 0.06 | 0.00 | 49 | 1014.6 |
| 20260508210051 | 67 | 0 | 0.0 | 0.0 | 0.00 | 0.06 | 0.00 | 52 | 1014.7 |
| 20260508205547 | 67 | 0 | 0.0 | 0.9 | 0.00 | 0.07 | 0.00 | 51 | 1014.8 |
| 20260508205045 | 67 | 0 | 0.0 | 0.9 | 0.00 | 0.07 | 0.00 | 53 | 1014.8 |
| 20260508204552 | 67 | 0 | 0.0 | 0.0 | 0.00 | 0.07 | 0.00 | 47 | 1014.9 |
| 20260508204045 | 68 | 0 | 0.0 | 0.0 | 0.00 | 0.07 | 0.00 | 50 | 1015.0 |
| 20260508203545 | 68 | 0 | 0.0 | 0.0 | 0.00 | 0.07 | 0.00 | 46 | 1014.9 |
| 20260508203052 | 68 | 0 | 0.0 | 0.9 | 0.00 | 0.07 | 0.00 | 45 | 1015.0 |
| 20260508202546 | 69 | 0 | 0.0 | 3.5 | 0.00 | 0.07 | 0.00 | 45 | 1015.0 |
| 20260508202049 | 69 | 0 | 0.0 | 3.5 | 0.00 | 0.07 | 0.00 | 47 | 1015.2 |
| 20260508201557 | 70 | 156 | 0.0 | 3.5 | 0.00 | 0.07 | 0.00 | 42 | 1015.4 |
| 20260508201048 | 70 | 0 | 0.0 | 0.9 | 0.00 | 0.07 | 0.00 | 45 | 1015.4 |
| 20260508200545 | 70 | 0 | 0.0 | 0.9 | 0.00 | 0.07 | 0.00 | 47 | 1015.3 |
| 20260508200053 | 70 | 0 | 0.0 | 0.9 | 0.00 | 0.07 | 0.00 | 45 | 1015.3 |
| 20260508195545 | 70 | 0 | 0.0 | 0.9 | 0.00 | 0.07 | 0.00 | 40 | 1015.4 |
| 20260508195045 | 69 | 0 | 0.0 | 0.9 | 0.00 | 0.07 | 0.00 | 42 | 1015.4 |
| 20260508194623 | 70 | 0 | 0.0 | 0.9 | 0.00 | 0.07 | 0.00 | 42 | 1015.5 |
| 20260508194049 | 70 | 0 | 0.0 | 0.0 | 0.00 | 0.07 | 0.00 | 46 | 1015.5 |
| 20260508193551 | 70 | 0 | 0.0 | 0.9 | 0.00 | 0.07 | 0.00 | 39 | 1015.3 |
| 20260508193106 | 70 | 0 | 0.0 | 0.9 | 0.00 | 0.07 | 0.00 | 48 | 1015.5 |
| 20260508192551 | 70 | 0 | 0.0 | 0.0 | 0.00 | 0.07 | 0.00 | 43 | 1015.6 |
| 20260508192046 | 71 | 0 | 0.0 | 1.7 | 0.00 | 0.07 | 0.00 | 40 | 1015.9 |
| 20260508191559 | 70 | 0 | 0.0 | 1.7 | 0.00 | 0.07 | 0.00 | 41 | 1016.1 |
| 20260508191053 | 70 | 0 | 0.0 | 3.5 | 0.00 | 0.07 | 0.00 | 43 | 1016.1 |
| 20260508190553 | 70 | 0 | 0.9 | 3.5 | 0.00 | 0.07 | 0.00 | 38 | 1016.1 |
| 20260508190051 | 70 | 327 | 0.0 | 2.6 | 0.00 | 0.07 | 0.00 | 43 | 1016.0 |
| 20260508185549 | 70 | 0 | 0.0 | 2.6 | 0.00 | 0.07 | 0.00 | 40 | 1015.9 |
| 20260508185049 | 69 | 0 | 0.0 | 4.3 | 0.00 | 0.07 | 0.00 | 45 | 1016.1 |
| 20260508184554 | 70 | 227 | 0.9 | 4.3 | 0.00 | 0.07 | 0.00 | 41 | 1016.2 |
| 20260508184050 | 71 | 0 | 0.0 | 3.5 | 0.00 | 0.07 | 0.00 | 38 | 1016.2 |
| 20260508183549 | 71 | 261 | 0.0 | 4.3 | 0.00 | 0.07 | 0.00 | 43 | 1016.3 |
| 20260508183055 | 70 | 272 | 0.9 | 4.3 | 0.00 | 0.07 | 0.00 | 44 | 1016.4 |
| 20260508182552 | 70 | 234 | 0.0 | 2.6 | 0.00 | 0.07 | 0.00 | 44 | 1016.4 |
| 20260508182050 | 70 | 250 | 0.9 | 4.3 | 0.00 | 0.07 | 0.00 | 42 | 1016.4 |
| 20260508181621 | 69 | 0 | 0.9 | 4.3 | 0.00 | 0.07 | 0.00 | 40 | 1016.4 |
| 20260508181050 | 70 | 40 | 0.0 | 4.3 | 0.00 | 0.07 | 0.00 | 42 | 1016.5 |
| 20260508180552 | 70 | 42 | 1.7 | 4.3 | 0.00 | 0.07 | 0.00 | 40 | 1016.6 |
| 20260508175550 | 69 | 242 | 0.0 | 3.5 | 0.00 | 0.09 | 0.00 | 40 | 1016.6 |
| 20260508175050 | 69 | 0 | 0.0 | 3.5 | 0.00 | 0.09 | 0.00 | 44 | 1016.7 |
| 20260508174551 | 69 | 0 | 0.0 | 3.5 | 0.00 | 0.09 | 0.00 | 50 | 1016.7 |
| 20260508174049 | 69 | 168 | 0.9 | 2.6 | 0.00 | 0.09 | 0.00 | 39 | 1016.8 |
| 20260508173550 | 69 | 225 | 0.9 | 3.5 | 0.00 | 0.09 | 0.00 | 47 | 1016.9 |
| 20260508173051 | 68 | 0 | 0.0 | 3.5 | 0.00 | 0.09 | 0.00 | 50 | 1017.1 |
| 20260508172549 | 67 | 347 | 0.9 | 4.3 | 0.00 | 0.09 | 0.00 | 48 | 1017.1 |
| 20260508172049 | 67 | 316 | 0.9 | 4.3 | 0.00 | 0.09 | 0.00 | 46 | 1017.2 |
| 20260508171550 | 68 | 13 | 1.7 | 4.3 | 0.00 | 0.09 | 0.00 | 45 | 1017.1 |
| 20260508171050 | 68 | 11 | 0.9 | 2.6 | 0.00 | 0.09 | 0.00 | 47 | 1017.2 |
| 20260508170550 | 68 | 255 | 0.0 | 3.5 | 0.00 | 0.09 | 0.00 | 50 | 1017.2 |
| 20260508170052 | 68 | 0 | 0.0 | 3.5 | 0.00 | 0.09 | 0.00 | 45 | 1017.3 |
| 20260508165548 | 67 | 0 | 0.0 | 3.5 | 0.00 | 0.16 | 0.00 | 45 | 1017.3 |
| 20260508165050 | 68 | 272 | 0.9 | 3.5 | 0.00 | 0.16 | 0.00 | 50 | 1017.4 |
| 20260508164551 | 67 | 303 | 0.0 | 3.5 | 0.00 | 0.16 | 0.00 | 51 | 1017.5 |
| 20260508164050 | 67 | 0 | 0.9 | 3.5 | 0.00 | 0.16 | 0.00 | 57 | 1017.7 |
| 20260508163549 | 65 | 0 | 0.0 | 3.5 | 0.00 | 0.16 | 0.00 | 54 | 1017.8 |
| 20260508163105 | 66 | 250 | 0.0 | 3.5 | 0.00 | 0.16 | 0.00 | 50 | 1018.1 |
| 20260508162549 | 65 | 0 | 0.0 | 4.3 | 0.00 | 0.16 | 0.00 | 50 | 1018.2 |
| 20260508162051 | 65 | 0 | 0.9 | 4.3 | 0.00 | 0.16 | 0.00 | 52 | 1018.3 |
| 20260508161608 | 67 | 0 | 0.0 | 3.5 | 0.00 | 0.16 | 0.00 | 59 | 1018.2 |
| 20260508161049 | 66 | 360 | 0.0 | 5.2 | 0.00 | 0.16 | 0.00 | 49 | 1018.3 |
| 20260508160551 | 66 | 44 | 0.9 | 5.2 | 0.00 | 0.16 | 0.00 | 54 | 1018.4 |
| 20260508160057 | 65 | 32 | 0.9 | 5.2 | 0.00 | 0.16 | 0.00 | 54 | 1018.3 |
| 20260508155549 | 65 | 352 | 0.9 | 3.5 | 0.00 | 0.18 | 0.00 | 55 | 1018.5 |
| 20260508155049 | 63 | 226 | 0.9 | 6.1 | 0.00 | 0.18 | 0.00 | 50 | 1018.5 |
| 20260508154558 | 64 | 15 | 0.9 | 6.1 | 0.00 | 0.18 | 0.00 | 53 | 1018.6 |
| 20260508154049 | 64 | 28 | 0.9 | 3.5 | 0.00 | 0.18 | 0.00 | 57 | 1018.6 |
| 20260508153550 | 64 | 57 | 0.0 | 5.2 | 0.00 | 0.18 | 0.00 | 49 | 1018.6 |
| 20260508153057 | 63 | 56 | 0.9 | 5.2 | 0.00 | 0.18 | 0.00 | 62 | 1018.6 |
| 20260508152548 | 63 | 59 | 1.7 | 7.0 | 0.00 | 0.18 | 0.00 | 60 | 1018.7 |
| 20260508152045 | 63 | 317 | 0.9 | 7.0 | 0.00 | 0.18 | 0.00 | 64 | 1018.6 |
| 20260508151607 | 62 | 0 | 1.7 | 4.3 | 0.00 | 0.18 | 0.00 | 61 | 1018.7 |
| 20260508151049 | 61 | 56 | 0.0 | 5.2 | 0.00 | 0.18 | 0.00 | 57 | 1018.7 |
| 20260508150549 | 61 | 0 | 0.9 | 5.2 | 0.00 | 0.18 | 0.00 | 62 | 1018.8 |
| 20260508150057 | 60 | 82 | 1.7 | 4.3 | 0.00 | 0.18 | 0.00 | 59 | 1018.8 |
| 20260508145548 | 61 | 35 | 0.9 | 4.3 | 0.00 | 0.21 | 0.00 | 61 | 1018.7 |
| 20260508145049 | 60 | 317 | 1.7 | 4.3 | 0.00 | 0.21 | 0.00 | 55 | 1018.7 |
| 20260508144559 | 60 | 302 | 0.0 | 3.5 | 0.00 | 0.21 | 0.00 | 68 | 1018.7 |
| 20260508144049 | 59 | 246 | 0.9 | 3.5 | 0.00 | 0.21 | 0.00 | 72 | 1018.7 |
| 20260508143550 | 58 | 283 | 0.0 | 3.5 | 0.00 | 0.21 | 0.00 | 70 | 1018.7 |
| 20260508143056 | 58 | 0 | 0.9 | 7.8 | 0.00 | 0.21 | 0.00 | 68 | 1018.6 |
| 20260508142548 | 57 | 349 | 0.9 | 7.8 | 0.00 | 0.21 | 0.00 | 75 | 1018.5 |
| 20260508142049 | 56 | 0 | 0.9 | 4.3 | 0.00 | 0.21 | 0.00 | 80 | 1018.4 |
| 20260508141601 | 56 | 45 | 0.0 | 4.3 | 0.00 | 0.21 | 0.00 | 79 | 1018.5 |
| 20260508141045 | 56 | 35 | 0.0 | 4.3 | 0.00 | 0.21 | 0.00 | 73 | 1018.4 |
| 20260508140546 | 55 | 0 | 0.9 | 4.3 | 0.00 | 0.21 | 0.00 | 82 | 1018.5 |
| 20260508140054 | 53 | 0 | 0.9 | 4.3 | 0.00 | 0.21 | 0.00 | 86 | 1018.6 |
| 20260508135550 | 51 | 37 | 0.0 | 4.3 | 0.00 | 0.27 | 0.00 | 95 | 1018.6 |
| 20260508135049 | 51 | 38 | 0.0 | 4.3 | 0.00 | 0.27 | 0.00 | 95 | 1018.4 |
| 20260508134557 | 51 | 14 | 0.0 | 2.6 | 0.00 | 0.27 | 0.00 | 96 | 1018.5 |
| 20260508134049 | 50 | 0 | 0.0 | 2.6 | 0.00 | 0.27 | 0.00 | 96 | 1018.4 |
| 20260508133550 | 50 | 348 | 0.9 | 2.6 | 0.00 | 0.27 | 0.00 | 96 | 1018.4 |
| 20260508133104 | 50 | 304 | 0.9 | 2.6 | 0.00 | 0.27 | 0.00 | 96 | 1018.4 |
| 20260508132549 | 50 | 20 | 0.0 | 5.2 | 0.00 | 0.27 | 0.00 | 96 | 1018.2 |
| 20260508132049 | 49 | 0 | 0.0 | 5.2 | 0.00 | 0.27 | 0.00 | 96 | 1018.3 |
| 20260508131553 | 49 | 55 | 0.9 | 5.2 | 0.00 | 0.27 | 0.00 | 96 | 1018.2 |
| 20260508131049 | 49 | 65 | 0.9 | 5.2 | 0.00 | 0.27 | 0.00 | 96 | 1018.2 |
| 20260508130550 | 49 | 0 | 0.0 | 2.6 | 0.00 | 0.27 | 0.00 | 96 | 1018.1 |
| 20260508130051 | 49 | 0 | 0.0 | 3.5 | 0.00 | 0.27 | 0.00 | 96 | 1018.0 |
| 20260508125549 | 48 | 64 | 0.9 | 3.5 | 0.00 | 0.30 | 0.00 | 96 | 1018.1 |
| 20260508125046 | 48 | 52 | 0.0 | 1.7 | 0.00 | 0.30 | 0.00 | 96 | 1018.1 |
| 20260508124554 | 48 | 0 | 0.0 | 1.7 | 0.00 | 0.30 | 0.00 | 96 | 1018.0 |
| 20260508124048 | 48 | 0 | 0.0 | 0.0 | 0.00 | 0.30 | 0.00 | 96 | 1018.1 |
| 20260508123549 | 47 | 0 | 0.0 | 0.0 | 0.00 | 0.30 | 0.00 | 95 | 1018.1 |
| 20260508123057 | 47 | 0 | 0.0 | 0.0 | 0.00 | 0.30 | 0.00 | 95 | 1018.1 |
| 20260508122549 | 47 | 0 | 0.0 | 0.0 | 0.00 | 0.30 | 0.00 | 95 | 1018.1 |
| 20260508122049 | 47 | 0 | 0.0 | 0.0 | 0.00 | 0.30 | 0.00 | 95 | 1018.0 |
| 20260508121555 | 47 | 0 | 0.0 | 1.7 | 0.00 | 0.30 | 0.00 | 95 | 1018.0 |
| 20260508121049 | 47 | 0 | 0.0 | 1.7 | 0.00 | 0.30 | 0.00 | 95 | 1017.8 |
| 20260508120550 | 47 | 0 | 0.0 | 2.6 | 0.00 | 0.30 | 0.00 | 95 | 1017.7 |
| 20260508120058 | 47 | 41 | 0.9 | 2.6 | 0.00 | 0.30 | 0.00 | 95 | 1017.6 |
| 20260508115549 | 47 | 37 | 0.9 | 2.6 | 0.00 | 0.32 | 0.00 | 95 | 1017.4 |
| 20260508115048 | 47 | 101 | 0.0 | 1.7 | 0.00 | 0.32 | 0.00 | 95 | 1017.4 |
| 20260508114550 | 46 | 0 | 0.0 | 0.0 | 0.00 | 0.32 | 0.00 | 95 | 1017.5 |
| 20260508114049 | 46 | 0 | 0.0 | 0.0 | 0.00 | 0.32 | 0.00 | 95 | 1017.4 |
| 20260508113547 | 46 | 0 | 0.0 | 0.0 | 0.00 | 0.32 | 0.00 | 95 | 1017.4 |
| 20260508113107 | 46 | 0 | 0.0 | 0.0 | 0.00 | 0.32 | 0.00 | 94 | 1017.3 |
| 20260508112545 | 46 | 0 | 0.0 | 0.0 | 0.00 | 0.32 | 0.00 | 94 | 1017.2 |
| 20260508112048 | 46 | 0 | 0.0 | 0.0 | 0.00 | 0.32 | 0.00 | 94 | 1017.2 |
| 20260508111556 | 46 | 0 | 0.0 | 0.0 | 0.00 | 0.32 | 0.00 | 94 | 1017.0 |
| 20260508111046 | 46 | 0 | 0.0 | 0.0 | 0.00 | 0.32 | 0.00 | 94 | 1016.9 |
| 20260508110550 | 46 | 0 | 0.0 | 0.0 | 0.00 | 0.32 | 0.00 | 94 | 1016.9 |
| 20260508110052 | 47 | 0 | 0.0 | 0.0 | 0.00 | 0.32 | 0.00 | 94 | 1016.7 |
| 20260508105549 | 47 | 0 | 0.0 | 0.0 | 0.00 | 0.32 | 0.00 | 94 | 1016.7 |
| 20260508105049 | 47 | 0 | 0.0 | 0.0 | 0.00 | 0.32 | 0.00 | 94 | 1016.5 |
| 20260508104557 | 47 | 0 | 0.0 | 0.0 | 0.00 | 0.32 | 0.00 | 94 | 1016.4 |
| 20260508104049 | 47 | 0 | 0.0 | 0.0 | 0.00 | 0.32 | 0.00 | 94 | 1016.4 |
| 20260508103549 | 47 | 0 | 0.0 | 0.0 | 0.00 | 0.32 | 0.00 | 94 | 1016.2 |
| 20260508103052 | 47 | 0 | 0.0 | 0.0 | 0.00 | 0.32 | 0.00 | 94 | 1016.2 |
| 20260508102545 | 47 | 0 | 0.0 | 0.0 | 0.00 | 0.32 | 0.00 | 94 | 1016.2 |
| 20260508102050 | 47 | 0 | 0.0 | 0.0 | 0.00 | 0.32 | 0.00 | 94 | 1016.2 |
| 20260508101556 | 47 | 0 | 0.0 | 0.0 | 0.00 | 0.32 | 0.00 | 94 | 1016.2 |
| 20260508101050 | 47 | 0 | 0.0 | 0.0 | 0.00 | 0.32 | 0.00 | 94 | 1016.1 |
| 20260508100548 | 47 | 0 | 0.0 | 0.0 | 0.00 | 0.32 | 0.00 | 94 | 1016.0 |
| 20260508100055 | 48 | 0 | 0.0 | 0.0 | 0.00 | 0.32 | 0.00 | 94 | 1016.0 |
| 20260508095549 | 48 | 0 | 0.0 | 0.0 | 0.00 | 0.34 | 0.00 | 94 | 1015.8 |
| 20260508095046 | 48 | 0 | 0.0 | 0.0 | 0.00 | 0.34 | 0.00 | 95 | 1015.7 |
| 20260508094605 | 48 | 0 | 0.0 | 0.0 | 0.00 | 0.34 | 0.00 | 95 | 1015.6 |
| 20260508094049 | 48 | 0 | 0.0 | 0.0 | 0.00 | 0.34 | 0.00 | 95 | 1015.6 |
| 20260508093547 | 48 | 0 | 0.0 | 0.0 | 0.00 | 0.34 | 0.00 | 94 | 1015.5 |
| 20260508093057 | 48 | 0 | 0.0 | 0.0 | 0.00 | 0.34 | 0.00 | 94 | 1015.4 |
| 20260508092549 | 48 | 0 | 0.0 | 0.0 | 0.00 | 0.34 | 0.00 | 94 | 1015.4 |
| 20260508092048 | 48 | 0 | 0.0 | 0.0 | 0.00 | 0.34 | 0.00 | 94 | 1015.3 |
| 20260508091557 | 48 | 0 | 0.0 | 0.0 | 0.00 | 0.34 | 0.00 | 95 | 1015.5 |
| 20260508091049 | 48 | 0 | 0.0 | 0.0 | 0.00 | 0.34 | 0.00 | 95 | 1015.5 |
| 20260508090550 | 49 | 0 | 0.0 | 0.0 | 0.00 | 0.34 | 0.00 | 95 | 1015.5 |
| 20260508090055 | 49 | 0 | 0.0 | 0.0 | 0.00 | 0.34 | 0.00 | 95 | 1015.5 |
| 20260508085545 | 49 | 0 | 0.0 | 0.0 | 0.00 | 0.37 | 0.00 | 94 | 1015.4 |
| 20260508085048 | 49 | 0 | 0.0 | 0.0 | 0.00 | 0.37 | 0.00 | 94 | 1015.3 |
| 20260508084600 | 49 | 0 | 0.0 | 0.0 | 0.00 | 0.37 | 0.00 | 94 | 1015.5 |
| 20260508084046 | 49 | 0 | 0.0 | 0.0 | 0.00 | 0.37 | 0.00 | 94 | 1015.4 |
| 20260508083545 | 49 | 0 | 0.0 | 0.0 | 0.00 | 0.37 | 0.00 | 95 | 1015.2 |
| 20260508083100 | 49 | 0 | 0.0 | 0.0 | 0.00 | 0.37 | 0.00 | 95 | 1015.2 |
| 20260508082545 | 49 | 0 | 0.0 | 0.0 | 0.00 | 0.37 | 0.00 | 95 | 1015.2 |
| 20260508082049 | 49 | 0 | 0.0 | 0.0 | 0.00 | 0.37 | 0.00 | 95 | 1015.1 |
| 20260508081622 | 49 | 0 | 0.0 | 0.0 | 0.00 | 0.37 | 0.00 | 95 | 1014.8 |
| 20260508081049 | 49 | 0 | 0.0 | 1.7 | 0.00 | 0.37 | 0.00 | 95 | 1014.8 |
| 20260508080552 | 49 | 0 | 0.0 | 1.7 | 0.00 | 0.37 | 0.00 | 95 | 1014.8 |
| 20260508080058 | 49 | 102 | 0.9 | 1.7 | 0.00 | 0.37 | 0.00 | 95 | 1014.7 |
| 20260508075549 | 50 | 102 | 0.0 | 1.7 | 0.00 | 0.41 | 0.00 | 95 | 1014.8 |
| 20260508075048 | 50 | 102 | 0.0 | 2.6 | 0.00 | 0.41 | 0.00 | 95 | 1014.8 |
| 20260508074554 | 50 | 0 | 0.0 | 2.6 | 0.00 | 0.41 | 0.00 | 95 | 1014.7 |
| 20260508074046 | 50 | 0 | 0.0 | 1.7 | 0.00 | 0.41 | 0.00 | 95 | 1014.6 |
| 20260508073546 | 50 | 0 | 0.0 | 1.7 | 0.00 | 0.41 | 0.00 | 95 | 1014.6 |
| 20260508073057 | 50 | 0 | 0.0 | 1.7 | 0.00 | 0.41 | 0.00 | 95 | 1014.6 |
| 20260508072548 | 50 | 105 | 0.0 | 1.7 | 0.00 | 0.41 | 0.00 | 95 | 1014.6 |
| 20260508072116 | 50 | 104 | 0.0 | 1.7 | 0.00 | 0.41 | 0.00 | 95 | 1014.6 |
| 20260508071550 | 50 | 0 | 0.0 | 1.7 | 0.00 | 0.41 | 0.00 | 95 | 1014.4 |
| 20260508071048 | 50 | 104 | 0.0 | 1.7 | 0.00 | 0.41 | 0.00 | 95 | 1014.5 |
| 20260508070545 | 50 | 0 | 0.0 | 1.7 | 0.00 | 0.41 | 0.00 | 95 | 1014.5 |
| 20260508065548 | 50 | 0 | 0.0 | 2.6 | 0.00 | 0.48 | 0.00 | 95 | 1014.5 |
| 20260508065049 | 50 | 109 | 0.0 | 2.6 | 0.00 | 0.48 | 0.00 | 95 | 1014.4 |
| 20260508064551 | 50 | 0 | 0.0 | 1.7 | 0.00 | 0.48 | 0.00 | 95 | 1014.5 |
| 20260508064050 | 51 | 0 | 0.0 | 1.7 | 0.00 | 0.48 | 0.00 | 95 | 1014.4 |
| 20260508063545 | 51 | 109 | 0.0 | 1.7 | 0.00 | 0.48 | 0.00 | 95 | 1014.3 |
| 20260508063056 | 51 | 109 | 0.0 | 2.6 | 0.00 | 0.48 | 0.00 | 95 | 1014.5 |
| 20260508062549 | 51 | 0 | 0.0 | 2.6 | 0.00 | 0.48 | 0.00 | 95 | 1014.5 |
| 20260508062048 | 51 | 109 | 0.0 | 2.6 | 0.00 | 0.48 | 0.00 | 94 | 1014.5 |
| 20260508061556 | 51 | 0 | 0.0 | 0.0 | 0.00 | 0.48 | 0.00 | 95 | 1014.5 |
| 20260508061049 | 51 | 0 | 0.0 | 0.0 | 0.00 | 0.48 | 0.00 | 95 | 1014.5 |
| 20260508060545 | 51 | 0 | 0.0 | 0.0 | 0.00 | 0.48 | 0.00 | 95 | 1014.4 |
| 20260508060057 | 51 | 0 | 0.0 | 0.0 | 0.00 | 0.48 | 0.00 | 94 | 1014.5 |
| 20260508055549 | 51 | 0 | 0.0 | 0.0 | 0.00 | 0.48 | 0.00 | 95 | 1014.5 |
| 20260508055045 | 51 | 0 | 0.0 | 1.7 | 0.00 | 0.48 | 0.00 | 95 | 1014.4 |
| 20260508054558 | 51 | 0 | 0.0 | 1.7 | 0.00 | 0.48 | 0.00 | 95 | 1014.4 |
| 20260508054049 | 51 | 74 | 0.0 | 1.7 | 0.00 | 0.48 | 0.00 | 95 | 1014.4 |
| 20260508053546 | 52 | 0 | 0.0 | 1.7 | 0.00 | 0.48 | 0.00 | 95 | 1014.4 |
| 20260508053056 | 52 | 65 | 0.0 | 0.0 | 0.00 | 0.48 | 0.00 | 95 | 1014.4 |
| 20260508052545 | 52 | 0 | 0.0 | 0.0 | 0.00 | 0.48 | 0.00 | 95 | 1014.3 |
| 20260508052048 | 52 | 0 | 0.0 | 0.0 | 0.00 | 0.48 | 0.00 | 95 | 1014.4 |
| 20260508051552 | 52 | 0 | 0.0 | 0.0 | 0.00 | 0.48 | 0.00 | 95 | 1014.4 |
| 20260508051054 | 52 | 0 | 0.0 | 0.0 | 0.00 | 0.48 | 0.00 | 95 | 1014.3 |
| 20260508050551 | 52 | 0 | 0.0 | 0.0 | 0.00 | 0.48 | 0.00 | 95 | 1014.4 |
| 20260508050054 | 51 | 0 | 0.0 | 0.0 | 0.00 | 0.48 | 0.00 | 95 | 1014.3 |
| 20260508045545 | 52 | 0 | 0.0 | 0.0 | 0.00 | 0.56 | 0.00 | 94 | 1014.3 |
| 20260508045048 | 52 | 0 | 0.0 | 0.0 | 0.00 | 0.56 | 0.00 | 94 | 1014.2 |
| 20260508044603 | 52 | 0 | 0.0 | 0.0 | 0.00 | 0.56 | 0.00 | 94 | 1014.2 |
| 20260508044048 | 52 | 0 | 0.0 | 0.0 | 0.00 | 0.56 | 0.00 | 94 | 1014.2 |
| 20260508043548 | 52 | 0 | 0.0 | 0.0 | 0.00 | 0.56 | 0.00 | 94 | 1014.1 |
| 20260508043053 | 52 | 0 | 0.0 | 0.0 | 0.00 | 0.56 | 0.00 | 94 | 1013.9 |
| 20260508042545 | 52 | 0 | 0.0 | 0.0 | 0.00 | 0.56 | 0.00 | 94 | 1014.0 |
| 20260508042048 | 52 | 0 | 0.0 | 0.0 | 0.00 | 0.56 | 0.00 | 94 | 1013.9 |
| 20260508041548 | 52 | 0 | 0.0 | 0.0 | 0.00 | 0.56 | 0.00 | 94 | 1013.9 |
| 20260508041048 | 52 | 0 | 0.0 | 0.0 | 0.00 | 0.56 | 0.00 | 94 | 1013.9 |
| 20260508040547 | 52 | 0 | 0.0 | 0.0 | 0.00 | 0.56 | 0.00 | 94 | 1013.8 |
| 20260508040058 | 52 | 0 | 0.0 | 0.0 | 0.00 | 0.56 | 0.00 | 94 | 1013.8 |
| 20260508035545 | 52 | 0 | 0.0 | 0.0 | 0.00 | 0.73 | 0.56 | 94 | 1013.8 |
| 20260508035048 | 52 | 0 | 0.0 | 0.0 | 0.00 | 0.73 | 0.56 | 94 | 1013.9 |
| 20260508034555 | 53 | 0 | 0.0 | 0.0 | 0.00 | 0.73 | 0.56 | 94 | 1013.8 |
| 20260508034046 | 53 | 0 | 0.0 | 0.0 | 0.00 | 0.73 | 0.56 | 94 | 1013.8 |
| 20260508033545 | 53 | 0 | 0.0 | 0.0 | 0.00 | 0.73 | 0.56 | 94 | 1013.9 |
| 20260508033052 | 53 | 0 | 0.0 | 0.0 | 0.00 | 0.73 | 0.56 | 94 | 1013.9 |
| 20260508032546 | 53 | 0 | 0.0 | 0.0 | 0.00 | 0.73 | 0.56 | 94 | 1013.8 |